User: anonymous   Login
Location: Unspecified
(0.0000°N, 0.0000°E)
Time: 18:18:00
(UTC+02:00)
Language:

IUS-9 SRM-1 - Orbit

View from above orbital plane
View from above orbital plane
View from above satellite
View from above satellite

Ground track
Ground track

The orbit data is extracted from the following two-line orbital elements,

1 19884U 89021C   16180.36161276  .00008723  00000-0  68396-3 0  9993
2 19884  26.4811 280.7455 6002821 201.3595 116.0655  4.07992279319410
Epoch (UTC): 28 June 2016 08:40:43
Eccentricity: 0.6002821
inclination: 26.4811°
perigee height: 234 km
apogee height: 20096 km
right ascension of ascending node: 280.7455°
argument of perigee: 201.3595°
revolutions per day: 4.07992279
mean anomaly at epoch: 116.0655°
orbit number at epoch: 31941

The dashed part of the orbit path shows where the satellite is in the earth's shadow,  

DLR